TimeHST,TemperatureF,Dew PointF,Humidity,Sea Level PressureIn,VisibilityMPH,Wind Direction,Wind SpeedMPH,Gust SpeedMPH,PrecipitationIn,Events,Conditions,WindDirDegrees,DateUTC
12:53 AM,69.1,66.9,93,29.96,10.0,Calm,Calm,-,N/A,,Partly Cloudy,0,2012-11-24 10:53:00
1:53 AM,69.1,66.9,93,29.96,10.0,NW,3.5,-,N/A,,Partly Cloudy,310,2012-11-24 11:53:00
2:53 AM,69.1,68.0,96,29.95,10.0,North,4.6,-,N/A,,Partly Cloudy,360,2012-11-24 12:53:00
3:53 AM,69.1,66.9,93,29.95,10.0,North,3.5,-,N/A,,Partly Cloudy,350,2012-11-24 13:53:00
4:53 AM,68.0,66.9,96,29.96,10.0,Calm,Calm,-,N/A,,Partly Cloudy,0,2012-11-24 14:53:00
5:53 AM,66.0,64.9,96,29.96,10.0,Calm,Calm,-,N/A,,Partly Cloudy,0,2012-11-24 15:53:00
6:53 AM,69.1,66.9,93,29.98,9.0,NNW,6.9,-,N/A,,Partly Cloudy,330,2012-11-24 16:53:00
7:53 AM,72.0,66.9,84,30.00,10.0,NNW,4.6,-,N/A,,Partly Cloudy,340,2012-11-24 17:53:00
8:53 AM,77.0,68.0,74,30.00,10.0,Variable,4.6,-,N/A,,Partly Cloudy,0,2012-11-24 18:53:00
9:53 AM,81.0,68.0,65,30.00,10.0,East,8.1,-,N/A,,Partly Cloudy,90,2012-11-24 19:53:00
10:53 AM,82.0,66.9,60,29.98,10.0,NE,6.9,-,N/A,,Scattered Clouds,50,2012-11-24 20:53:00
11:53 AM,82.9,66.9,58,29.96,10.0,NE,15.0,19.6,N/A,,Scattered Clouds,40,2012-11-24 21:53:00
12:53 PM,84.0,66.0,55,29.94,10.0,ENE,12.7,18.4,N/A,,Scattered Clouds,60,2012-11-24 22:53:00
1:53 PM,84.0,66.0,55,29.92,10.0,NE,13.8,23.0,N/A,,Scattered Clouds,40,2012-11-24 23:53:00
2:53 PM,82.0,66.0,58,29.91,10.0,NNE,13.8,-,N/A,,Scattered Clouds,20,2012-11-25 00:53:00
3:53 PM,81.0,66.0,60,29.92,10.0,NNE,13.8,-,N/A,,Scattered Clouds,30,2012-11-25 01:53:00
4:53 PM,79.0,66.0,64,29.92,10.0,NE,12.7,-,N/A,,Scattered Clouds,40,2012-11-25 02:53:00
5:53 PM,77.0,66.0,69,29.94,10.0,NNE,5.8,-,N/A,,Scattered Clouds,30,2012-11-25 03:53:00
6:53 PM,75.9,66.9,74,29.96,10.0,NNE,5.8,-,N/A,,Partly Cloudy,30,2012-11-25 04:53:00
7:53 PM,75.9,66.0,71,29.99,10.0,NE,6.9,-,N/A,,Scattered Clouds,40,2012-11-25 05:53:00
8:53 PM,75.0,66.0,73,30.00,10.0,NE,4.6,-,N/A,,Scattered Clouds,40,2012-11-25 06:53:00
9:53 PM,73.9,66.9,79,30.01,10.0,Calm,Calm,-,N/A,,Scattered Clouds,0,2012-11-25 07:53:00
10:53 PM,75.0,66.9,76,30.01,10.0,NE,3.5,-,N/A,,Scattered Clouds,40,2012-11-25 08:53:00
11:53 PM,73.0,66.0,79,30.00,10.0,NE,4.6,-,N/A,,Scattered Clouds,40,2012-11-25 09:53:00